Regional Weather Roundup
Issued by NWS

Home | Current Version | Previous Version | Text Only | Print | Product List | Glossary On
Versions: 1 2 3 4 5 6 7 8 9 10 11 12 13 14 15 16 17 18 19 20 21 22 23 24 25 26 27 28 29 30 31 32 33 34 35 36 37 38 39 40 41 42 43 44 45 46 47 48 49 50
000
ASUS44 KMEG 220210
RWRTN
TENNESSEE HOURLY STATE WEATHER ROUNDUP
NATIONAL WEATHER SERVICE MEMPHIS TN
900 PM CDT SUN SEP 21 2014

TNZ002-004-019-021-049-052-054-088>092-220300-
WEST TENNESSEE

CITY           SKY/WX    TMP DP  RH WIND       PRES   REMARKS
MEMPHIS INTL   PTCLDY    77  53  43 N13       30.04R
NWS MEMPHIS      N/A     76 N/A N/A MISG        N/A
JACKSON        CLEAR     67  53  61 N6        30.04R
DYERSBURG      CLEAR     66  46  48 N3        30.06R
UNION CITY     CLEAR     63  54  72 CALM      30.04R
PARIS          CLEAR     61  48  63 CALM      30.05R
HUNTINGDON     CLEAR     60  51  72 CALM      30.05R
LEXINGTON      CLEAR     66  54  63 N6        30.03R
SAVANNAH       MOCLDY    73  59  60 N8        30.03R
$$

TNZ008-025-027-028-033-062-065-066-220300-
NORTH MIDDLE TENNESSEE

CITY           SKY/WX    TMP DP  RH WIND       PRES   REMARKS
NASHVILLE      PTCLDY    71  49  45 N6        30.04R
DICKSON        CLEAR     66  48  52 N6        30.04R
PORTLAND       CLEAR     64  48  55 NW3       30.02R
CLARKSVILLE    CLEAR     65  50  58 N7        30.03R
LEBANON        CLEAR     67  49  52 CALM      30.02R
SMYRNA         PTCLDY    69  50  50 N5        30.04R
MURFREESBORO   CLEAR     72  50  45 N6        30.02R
COOKEVILLE     CLEAR     68  55  64 N3        30.03R
LIVINGSTON     CLEAR     66  46  48 N9        30.04R
GALLATIN       CLEAR     70  50  49 N5        30.04R
CROSSVILLE     CLEAR     68  56  65 NW7       30.05R
$$

TNZ061-075-076-078-094-096-097-220300-
SOUTH MIDDLE TENNESSEE

CITY           SKY/WX    TMP DP  RH WIND       PRES   REMARKS
LEWISBURG      MOCLDY    74  54  49 N10       30.02R
FAYETTEVILLE   PTCLDY    73  66  78 N5        30.00R
TULLAHOMA      MOCLDY    72  61  68 N13       30.03R
WINCHESTER     PTCLDY    70  68  94 CALM      30.00S
MCMINNVILLE    CLEAR     70  54  56 N8        30.03R
COLUMBIA       CLEAR     73  55  53 N5        30.02R
SHELBYVILLE    CLOUDY    73  55  53 N6        30.03R
$$

TNZ017-018-042-046-047-220300-
NORTHEAST TENNESSEE

CITY           SKY/WX    TMP DP  RH WIND       PRES   REMARKS
TRI CITIES     MOCLDY    68  63  84 W12       29.95R
ELIZABETHTON   CLOUDY    64  61  88 W8        29.96R
$$

TNZ012-013-036-069-073-074-220300-
CENTRAL EAST TENNESSEE

CITY           SKY/WX    TMP DP  RH WIND       PRES   REMARKS
KNOXVILLE      MOCLDY    70  68  93 W5        29.96R
OAK RIDGE      MOCLDY    72  69  90 CALM      30.00R
GATLINBURG     MOCLDY    72  64  78 SW5       29.96R
MORRISTOWN     CLEAR     70  68  94 W6        29.99R
$$

TNZ083-085-099-220300-
SOUTHEAST TENNESSEE

CITY           SKY/WX    TMP DP  RH WIND       PRES   REMARKS
CHATTANOOGA    MOCLDY    74  66  76 S5        29.97R
$$

SKY/WX REPORTED AS FAIR MEANS FEW OR NO CLOUDS BELOW
12 THOUSAND FEET.




USA.gov is the U.S. government's official web portal to all federal, state and local government web resources and services.